• Join FlightAware (Why Join?)
  • Login
  • US Flag 
08:51AM EST


 

Airport Tracker/Info


-or-


 

Live Flight TrackerFlight Track Log ✈ SKW4744 ✈ 19-Mar-2014 ✈ KORD - KDTW

Flight Track Log - Related Links

Times and Time Zones

All times are in EDT time to prevent confusion due to time zone crossing. See the SKW4744 flight status page for this flight to view local times or setup timezone preferences in your user account.

Time Position Orientation Groundspeed Altitude Reporting Facility
EDT Latitude Longitude Course Direction KTS MPH feet Rate Location/Type
01:25PM 41.9667 -87.9333 14° North 162 186 1,700  Level Chicago TRACON
01:26PM 42.0167 -87.9833 323° Northwest 220 253 3,600 2,222 Climbing Chicago TRACON
01:28PM 42.3623 -87.7710 36° Northeast  Level FlightAware Approximate
01:28PM 42.1156 -88.0442 335° Northwest 270 311 7,700  Level Chicago Center
01:29PM 42.4615 -87.7487 16° North  Level FlightAware Approximate
01:29PM 42.1944 -88.0392 North 284 327 10,800  Level Chicago Center
01:30PM 42.5607 -87.7187 14° North  Level FlightAware Approximate
01:30PM 42.2828 -88.0383 360° North 297 342 12,600  Level Chicago Center
01:31PM 42.3594 -87.9844 27° Northeast 351 404 13,800 1,645 Climbing Chicago Center
01:32PM 42.4728 -87.8997 29° Northeast 382 440 16,000 2,226 Climbing Chicago Center
01:33PM 42.5731 -87.8258 28° Northeast 403 464 18,400 2,081 Climbing Chicago Center
01:34PM 42.6731 -87.7486 30° Northeast 414 476 20,300 1,839 Climbing Chicago Center
01:35PM 42.7758 -87.6725 29° Northeast 422 486 22,200 1,790 Climbing Chicago Center
01:36PM 42.8456 -87.5514 52° Northeast 421 484 24,000 1,355 Climbing Chicago Center
01:37PM 42.8867 -87.3642 73° East 434 499 25,000 484 Climbing Chicago Center
01:38PM 42.9225 -87.1958 74° East 454 522 25,000  Level Chicago Center
01:39PM 42.9586 -87.0303 73° East 457 526 25,000  Level Chicago Center
01:40PM 42.9950 -86.8672 73° East 453 521 25,000 -48 Level Chicago Center
01:41PM 43.0292 -86.7036 74° East 451 519 24,900 -484 Descending Chicago Center
01:42PM 43.0581 -86.5383 76° East 449 517 24,000 -919 Descending Chicago Center
01:43PM 43.0861 -86.3442 79° East 438 504 23,000 -484 Descending Chicago Center
01:44PM 43.1094 -86.1828 79° East 433 498 23,000  Level Chicago Center
01:45PM 43.1331 -86.0258 78° East 420 483 23,000  Level Chicago Center
01:46PM 43.1561 -85.8711 78° East 404 465 23,000  Level Chicago Center
01:47PM 43.1772 -85.7231 79° East 397 457 23,000  Level Chicago Center
01:48PM 43.1983 -85.5764 79° East 392 451 23,000  Level Chicago Center
01:49PM 43.2175 -85.4328 80° East 386 444 23,000  Level Chicago Center
01:50PM 43.1897 -85.2956 105° East 374 430 23,000  Level Chicago Center
01:51PM 43.1586 -85.1572 107° East 378 435 23,000  Level Chicago Center
01:52PM 43.1211 -84.9856 107° East 390 449 23,000  Level Chicago Center
01:53PM 43.0897 -84.8403 106° East 397 457 23,000  Level Chicago Center
01:54PM 43.0567 -84.6936 107° East 403 464 23,000 -823 Level Chicago Center
01:56PM 43.0233 -84.5486 107° East 401 461 21,300 -1,790 Descending Chicago Center
01:57PM 42.9936 -84.4128 107° East 379 436 19,300 -2,176 Descending Chicago Center
01:57PM 42.9722 -84.3228 108° East 367 422 17,600 -1,941 Descending Cleveland Center
01:58PM 42.9436 -84.1947 107° East 358 412 16,000 -1,355 Descending Cleveland Center
01:59PM 42.9142 -84.0678 108° East 355 409 14,800 -1,304 Descending Cleveland Center
02:00PM 42.8961 -83.9903 108° East 342 394 14,000 -1,065 Descending Cleveland Center
02:00PM 42.8867 -83.9453 106° East 341 392 13,700 -1,164 Descending Cleveland Center
02:01PM 42.8636 -83.8483 108° East 334 384 12,700 -1,258 Descending Cleveland Center
02:01PM 42.8525 -83.8008 108° East 337 388 12,400 -677 Descending Cleveland Center
02:02PM 42.8286 -83.7378 117° Southeast 308 354 12,000 -381 Descending Cleveland Center
02:02PM 42.8031 -83.7142 146° Southeast 304 350 12,000 -393 Level Cleveland Center
02:03PM 42.7650 -83.6942 159° South 239 275 11,600 -968 Descending Cleveland Center
02:03PM 42.7414 -83.6778 153° Southeast 247 284 11,000 -1,309 Descending Cleveland Center
02:04PM 42.7089 -83.6603 158° South 236 272 10,400 -1,161 Descending Cleveland Center
02:04PM 42.6819 -83.6428 154° Southeast 236 272 9,800 -1,475 Descending Cleveland Center
02:05PM 42.6469 -83.6228 157° South 228 262 8,900 -1,452 Descending Cleveland Center
02:06PM 42.6233 -83.6083 156° South 230 265 8,300 -1,065 Descending Cleveland Center
02:06PM 42.5889 -83.5889 157° South 233 268 7,800 -968 Descending Cleveland Center
02:07PM 42.5544 -83.5675 155° Southeast 228 262 7,300 -806 Descending Cleveland Center
02:07PM 42.5364 -83.5358 128° Southeast 230 265 6,900 -968 Descending Cleveland Center
02:08PM 42.5264 -83.4925 107° East 232 267 6,300 -885 Descending Cleveland Center
02:08PM 42.5158 -83.4508 109° East 228 262 6,000 -387 Descending Cleveland Center
02:09PM 42.5078 -83.4125 106° East 227 261 5,900  Descending Cleveland Center
02:09PM 42.4981 -83.3831 114° Southeast 198 228 6,000 -290 Climbing Cleveland Center
02:10PM 42.5139 -83.3425 62° Northeast 228 262 5,600 -882 Descending Cleveland Center
02:10PM 42.5408 -83.3183 33° Northeast 220 253 5,000 -1,065 Descending Cleveland Center
02:11PM 42.5644 -83.2986 32° Northeast 218 251 4,500 -1,091 Descending Cleveland Center
02:11PM 42.5881 -83.2767 34° Northeast 221 254 4,000 -476 Descending Cleveland Center
02:12PM 42.6078 -83.2461 49° Northeast 223 257 4,000  Level Cleveland Center
02:12PM 42.6036 -83.2108 99° East 193 222 4,000  Level Cleveland Center
02:13PM 42.6017 -83.1725 94° East 207 238 4,000  Level Cleveland Center
02:13PM 42.5850 -83.1544 141° Southeast 143 165 4,000  Level Cleveland Center
02:14PM 42.5594 -83.1453 165° South 167 192 4,000  Level Cleveland Center
02:14PM 42.5419 -83.1400 167° South 143 165 4,000  Level Cleveland Center
02:15PM 42.5219 -83.1442 189° South 143 165 4,000  Level Cleveland Center
02:15PM 42.5114 -83.1556 218° Southwest 130 150 4,000  Level Cleveland Center
02:16PM 42.4917 -83.1719 211° Southwest 134 154 4,000  Level Cleveland Center
02:16PM 42.4783 -83.1792 202° Southwest 130 150 4,000  Level Cleveland Center
02:17PM 42.4594 -83.1933 209° Southwest 133 153 4,000  Level Cleveland Center
02:17PM 42.4450 -83.2031 206° Southwest 135 155 4,000  Level Cleveland Center
02:18PM 42.4272 -83.2172 210° Southwest 132 152 4,000  Level Cleveland Center
02:18PM 42.4139 -83.2269 208° Southwest 127 146 4,000  Level Cleveland Center
02:19PM 42.3964 -83.2411 211° Southwest 132 152 4,000  Level Cleveland Center
02:19PM 42.3783 -83.2531 206° Southwest 133 153 4,000 -194 Level Cleveland Center
02:20PM 42.3581 -83.2683 209° Southwest 131 151 3,800 -436 Descending Cleveland Center
02:20PM 42.3492 -83.2772 216° Southwest 136 157 3,600 -871 Descending Cleveland Center
02:21PM 42.3231 -83.2944 206° Southwest 136 157 2,900 -873 Descending Cleveland Center
02:21PM 42.3161 -83.3008 214° Southwest 138 159 2,800 -677 Descending Cleveland Center
02:22PM 42.2906 -83.3183 207° Southwest 136 157 2,200 -730 Descending Cleveland Center
02:22PM 42.2783 -83.3267 207° Southwest 114 131 1,900 -667 Descending Cleveland Center
02:23PM 42.2628 -83.3394 211° Southwest 125 144 1,500 -600 Descending Cleveland Center
02:23PM 42.2517 -83.3481 210° Southwest 122 140 1,300 -484 Descending Cleveland Center
02:24PM 42.2306 -83.3636 209° Southwest 121 139 1,000 -330 Descending Cleveland Center
02:25PM 42.2019 -83.3858 210° Southwest 122 140 700 -290 Descending Cleveland Center